User: anonymous   Login
Location: Boiro
(42.6475°N, 8.8834°W)
Time: 02:44:29
(UTC+02:00)
Language:

AO-91 - Orbit

View from above orbital plane
View from above orbital plane
View from above satellite
View from above satellite

Ground track
Ground track

The orbit data is extracted from the following two-line orbital elements,

1 43017U 17073E   22229.35759277  .00004210  00000-0  31739-3 0  9998
2 43017  97.6665 121.0493 0247099 348.7491  10.8256 14.81807487256130
Epoch (UTC): 17 August 2022 08:34:56
Eccentricity: 0.0247099
inclination: 97.6665°
perigee height: 450 km
apogee height: 796 km
right ascension of ascending node: 121.0493°
argument of perigee: 348.7491°
revolutions per day: 14.81807487
mean anomaly at epoch: 10.8256°
orbit number at epoch: 25613

The dashed part of the orbit path shows where the satellite is in the earth's shadow,  

DLR